Time,TemperatureF,DewpointF,PressureIn,WindDirection,WindDirectionDegrees,WindSpeedMPH,WindSpeedGustMPH,Humidity,HourlyPrecipIn,Conditions,Clouds,dailyrainin,SoftwareType,DateUTC
2013-02-20 00:10:00,40.1,26.5,28.91,SSE,158,1.6,1.6,58,0.00,,---,0.21,VWS V14.00,2013-02-20 05:10:00,
2013-02-20 00:16:00,39.9,26.4,28.91,WNW,292,2.0,2.9,58,0.00,,---,0.00,VWS V14.00,2013-02-20 05:16:00,
2013-02-20 00:22:00,39.9,26.4,28.91,West,270,4.7,4.7,58,0.00,,---,0.00,VWS V14.00,2013-02-20 05:22:00,
2013-02-20 00:25:00,39.9,26.4,28.91,WSW,248,2.0,4.7,58,0.00,,---,0.00,VWS V14.00,2013-02-20 05:25:00,
2013-02-20 00:31:00,39.7,26.2,28.91,WNW,292,2.0,4.7,58,0.00,,---,0.00,VWS V14.00,2013-02-20 05:31:00,
2013-02-20 00:37:00,39.9,26.4,28.91,WNW,292,2.7,4.7,58,0.00,,---,0.00,VWS V14.00,2013-02-20 05:37:00,
2013-02-20 00:43:00,40.1,26.5,28.91,ESE,112,0.9,4.7,58,0.00,,---,0.00,VWS V14.00,2013-02-20 05:43:00,
2013-02-20 00:49:00,40.1,26.5,28.91,WNW,292,1.1,4.7,58,0.00,,---,0.00,VWS V14.00,2013-02-20 05:49:00,
2013-02-20 00:55:00,40.1,26.5,28.91,NNW,338,0.0,4.7,58,0.00,,---,0.00,VWS V14.00,2013-02-20 05:55:00,
2013-02-20 01:01:00,40.3,26.7,28.91,West,270,0.9,2.0,58,0.00,,---,0.00,VWS V14.00,2013-02-20 06:01:00,
2013-02-20 01:07:00,40.3,26.7,28.91,WNW,292,0.0,2.0,58,0.00,,---,0.00,VWS V14.00,2013-02-20 06:07:00,
2013-02-20 01:13:00,40.3,26.7,28.91,West,270,0.0,2.0,58,0.00,,---,0.00,VWS V14.00,2013-02-20 06:13:00,
2013-02-20 01:19:00,40.1,26.5,28.91,SSW,202,0.0,2.0,58,0.00,,---,0.00,VWS V14.00,2013-02-20 06:19:00,
2013-02-20 01:25:00,39.9,26.4,28.91,NW,315,1.6,2.0,58,0.00,,---,0.00,VWS V14.00,2013-02-20 06:25:00,
2013-02-20 01:31:00,39.4,25.9,28.91,NNE,22,1.1,2.0,58,0.00,,---,0.00,VWS V14.00,2013-02-20 06:31:00,
2013-02-20 01:37:00,39.4,25.9,28.91,ENE,68,2.7,2.7,58,0.00,,---,0.00,VWS V14.00,2013-02-20 06:37:00,
2013-02-20 01:43:00,38.8,25.8,28.91,WNW,292,0.0,2.7,59,0.00,,---,0.00,VWS V14.00,2013-02-20 06:43:00,
2013-02-20 01:49:00,38.7,25.6,28.91,NNE,22,1.1,2.7,59,0.00,,---,0.00,VWS V14.00,2013-02-20 06:49:00,
2013-02-20 01:55:00,38.1,25.1,28.91,NNW,338,2.0,2.7,59,0.00,,---,0.00,VWS V14.00,2013-02-20 06:55:00,
2013-02-20 02:01:00,37.8,24.7,28.91,NNE,22,1.1,1.6,59,0.00,,---,0.00,VWS V14.00,2013-02-20 07:01:00,
2013-02-20 02:07:00,37.9,24.9,28.91,NNW,338,0.0,2.2,59,0.00,,---,0.00,VWS V14.00,2013-02-20 07:07:00,
2013-02-20 02:13:00,37.9,24.9,28.91,North,0,0.9,3.4,59,0.00,,---,0.00,VWS V14.00,2013-02-20 07:13:00,
2013-02-20 02:19:00,37.9,24.9,28.91,NE,45,0.0,3.4,59,0.00,,---,0.00,VWS V14.00,2013-02-20 07:19:00,
2013-02-20 02:25:00,37.9,24.9,28.91,NW,315,0.0,3.4,59,0.00,,---,0.00,VWS V14.00,2013-02-20 07:25:00,
2013-02-20 02:31:00,37.8,24.7,28.91,West,270,0.0,3.4,59,0.00,,---,0.00,VWS V14.00,2013-02-20 07:31:00,
2013-02-20 02:37:00,37.6,24.6,28.91,WNW,292,0.0,3.4,59,0.00,,---,0.00,VWS V14.00,2013-02-20 07:37:00,
2013-02-20 02:43:00,37.4,24.4,28.91,ENE,68,0.0,3.4,59,0.00,,---,0.00,VWS V14.00,2013-02-20 07:43:00,
2013-02-20 02:49:00,37.4,24.4,28.91,WNW,292,2.2,6.3,59,0.00,,---,0.00,VWS V14.00,2013-02-20 07:49:00,
2013-02-20 02:55:00,37.4,24.4,28.91,WNW,292,2.7,6.3,59,0.00,,---,0.00,VWS V14.00,2013-02-20 07:55:00,
2013-02-20 03:05:00,37.6,24.6,28.91,WSW,248,2.0,3.6,59,0.00,,---,0.00,VWS V14.00,2013-02-20 08:05:00,
2013-02-20 03:11:00,37.2,24.2,28.91,WNW,292,1.6,3.6,59,0.00,,---,0.00,VWS V14.00,2013-02-20 08:11:00,
2013-02-20 03:17:00,37.4,24.4,28.91,WSW,248,1.1,3.6,59,0.00,,---,0.00,VWS V14.00,2013-02-20 08:17:00,
2013-02-20 03:23:00,37.6,24.6,28.91,West,270,0.9,3.6,59,0.00,,---,0.00,VWS V14.00,2013-02-20 08:23:00,
2013-02-20 03:29:00,37.6,24.6,28.91,WNW,292,3.1,3.6,59,0.00,,---,0.00,VWS V14.00,2013-02-20 08:29:00,
2013-02-20 03:35:00,37.6,24.6,28.91,SW,225,3.8,3.8,59,0.00,,---,0.00,VWS V14.00,2013-02-20 08:35:00,
2013-02-20 03:41:00,37.8,24.7,28.91,West,270,2.9,3.8,59,0.00,,---,0.00,VWS V14.00,2013-02-20 08:41:00,
2013-02-20 03:47:00,37.8,23.5,28.91,WNW,292,5.8,5.8,56,0.00,,---,0.00,VWS V14.00,2013-02-20 08:47:00,
2013-02-20 03:53:00,37.9,23.7,28.91,SE,135,0.0,5.8,56,0.00,,---,0.00,VWS V14.00,2013-02-20 08:53:00,
2013-02-20 03:59:00,37.9,23.7,28.91,NW,315,4.0,5.8,56,0.00,,---,0.00,VWS V14.00,2013-02-20 08:59:00,
2013-02-20 04:05:00,38.1,23.8,28.91,ENE,68,0.0,1.6,56,0.00,,---,0.00,VWS V14.00,2013-02-20 09:05:00,
2013-02-20 04:11:00,38.1,23.8,28.91,WNW,292,2.7,2.7,56,0.00,,---,0.00,VWS V14.00,2013-02-20 09:11:00,
2013-02-20 04:17:00,38.1,23.8,28.91,West,270,2.2,6.0,56,0.00,,---,0.00,VWS V14.00,2013-02-20 09:17:00,
2013-02-20 04:23:00,38.1,23.8,28.91,West,270,2.2,6.0,56,0.00,,---,0.00,VWS V14.00,2013-02-20 09:23:00,
2013-02-20 04:29:00,38.1,23.8,28.91,WSW,248,1.1,6.0,56,0.00,,---,0.00,VWS V14.00,2013-02-20 09:29:00,
2013-02-20 04:35:00,38.1,23.8,28.91,East,90,0.0,6.0,56,0.00,,---,0.00,VWS V14.00,2013-02-20 09:35:00,
2013-02-20 04:41:00,38.1,23.8,28.91,West,270,0.0,6.0,56,0.00,,---,0.00,VWS V14.00,2013-02-20 09:41:00,
2013-02-20 04:47:00,37.9,23.7,28.91,SSE,158,1.3,6.0,56,0.00,,---,0.00,VWS V14.00,2013-02-20 09:47:00,
2013-02-20 04:53:00,37.9,23.7,28.91,SE,135,1.1,6.0,56,0.00,,---,0.00,VWS V14.00,2013-02-20 09:53:00,
2013-02-20 04:59:00,37.9,23.7,28.94,NE,45,0.0,6.0,56,0.00,,---,0.00,VWS V14.00,2013-02-20 09:59:00,
2013-02-20 05:05:00,37.8,23.5,28.94,NE,45,1.3,1.3,56,0.00,,---,0.00,VWS V14.00,2013-02-20 10:05:00,
2013-02-20 05:11:00,37.4,23.1,28.94,NE,45,0.0,1.3,56,0.00,,---,0.00,VWS V14.00,2013-02-20 10:11:00,
2013-02-20 05:17:00,37.2,24.2,28.91,NE,45,0.0,1.6,59,0.00,,---,0.00,VWS V14.00,2013-02-20 10:17:00,
2013-02-20 05:23:00,36.7,23.7,28.91,ENE,68,0.0,1.6,59,0.00,,---,0.00,VWS V14.00,2013-02-20 10:23:00,
2013-02-20 05:29:00,36.3,23.4,28.91,NE,45,0.0,1.6,59,0.00,,---,0.00,VWS V14.00,2013-02-20 10:29:00,
2013-02-20 05:35:00,36.1,23.2,28.91,NE,45,0.0,1.6,59,0.00,,---,0.00,VWS V14.00,2013-02-20 10:35:00,
2013-02-20 05:41:00,35.6,22.7,28.91,NE,45,0.0,1.6,59,0.00,,---,0.00,VWS V14.00,2013-02-20 10:41:00,
2013-02-20 05:47:00,35.4,22.9,28.91,North,0,0.0,2.0,60,0.00,,---,0.00,VWS V14.00,2013-02-20 10:47:00,
2013-02-20 05:53:00,34.9,22.4,28.91,NW,315,1.3,2.0,60,0.00,,---,0.00,VWS V14.00,2013-02-20 10:53:00,
2013-02-20 05:59:00,34.5,22.1,28.91,NE,45,0.0,2.0,60,0.00,,---,0.00,VWS V14.00,2013-02-20 10:59:00,
2013-02-20 06:05:00,34.3,21.9,28.91,WNW,292,1.1,1.1,60,0.00,,---,0.00,VWS V14.00,2013-02-20 11:05:00,
2013-02-20 06:11:00,34.2,21.7,28.91,WNW,292,2.7,2.7,60,0.00,,---,0.00,VWS V14.00,2013-02-20 11:11:00,
2013-02-20 06:17:00,34.2,21.7,28.91,NNE,22,0.9,2.7,60,0.00,,---,0.00,VWS V14.00,2013-02-20 11:17:00,
2013-02-20 06:23:00,34.0,21.6,28.91,NNW,338,0.0,3.6,60,0.00,,---,0.00,VWS V14.00,2013-02-20 11:23:00,
2013-02-20 06:29:00,33.4,21.1,28.91,NNW,338,0.0,3.6,60,0.00,,---,0.00,VWS V14.00,2013-02-20 11:29:00,
2013-02-20 06:35:00,33.4,21.1,28.91,WNW,292,2.0,3.6,60,0.00,,---,0.00,VWS V14.00,2013-02-20 11:35:00,
2013-02-20 06:41:00,33.3,20.9,28.91,NNW,338,0.0,3.6,60,0.00,,---,0.00,VWS V14.00,2013-02-20 11:41:00,
2013-02-20 06:47:00,33.3,20.9,28.94,ENE,68,0.0,3.6,60,0.00,,---,0.00,VWS V14.00,2013-02-20 11:47:00,
2013-02-20 06:53:00,32.9,20.5,28.94,NNE,22,0.0,3.6,60,0.00,,---,0.00,VWS V14.00,2013-02-20 11:53:00,
2013-02-20 06:59:00,32.7,20.4,28.91,NNW,338,0.0,3.6,60,0.00,,---,0.00,VWS V14.00,2013-02-20 11:59:00,
2013-02-20 07:05:00,32.5,20.2,28.91,North,0,0.9,2.2,60,0.00,,---,0.00,VWS V14.00,2013-02-20 12:05:00,
2013-02-20 07:11:00,32.5,20.2,28.91,WNW,292,2.0,2.2,60,0.00,,---,0.00,VWS V14.00,2013-02-20 12:11:00,
2013-02-20 07:17:00,32.4,20.0,28.91,NW,315,1.1,2.2,60,0.00,,---,0.00,VWS V14.00,2013-02-20 12:17:00,
2013-02-20 07:23:00,32.2,19.9,28.91,WNW,292,1.6,2.2,60,0.00,,---,0.00,VWS V14.00,2013-02-20 12:23:00,
2013-02-20 07:29:00,32.2,19.9,28.91,North,0,0.0,2.2,60,0.00,,---,0.00,VWS V14.00,2013-02-20 12:29:00,
2013-02-20 07:35:00,32.2,19.9,28.91,WNW,292,0.0,2.2,60,0.00,,---,0.00,VWS V14.00,2013-02-20 12:35:00,
2013-02-20 07:41:00,32.2,21.0,28.91,ESE,112,1.6,2.2,63,0.00,,---,0.00,VWS V14.00,2013-02-20 12:41:00,
2013-02-20 07:47:00,32.2,21.0,28.91,WNW,292,0.0,4.7,63,0.00,,---,0.00,VWS V14.00,2013-02-20 12:47:00,
2013-02-20 07:53:00,32.2,21.0,28.91,WNW,292,2.5,4.7,63,0.00,,---,0.00,VWS V14.00,2013-02-20 12:53:00,
2013-02-20 08:00:00,32.2,21.0,28.94,NE,45,0.0,4.7,63,0.00,,---,0.00,VWS V14.00,2013-02-20 13:00:00,
2013-02-20 08:06:00,32.5,22.1,28.94,NNW,338,0.0,1.1,65,0.00,,---,0.00,VWS V14.00,2013-02-20 13:06:00,
2013-02-20 08:12:00,32.7,22.3,28.94,SSW,202,0.0,1.6,65,0.00,,---,0.00,VWS V14.00,2013-02-20 13:12:00,
2013-02-20 08:18:00,33.8,23.3,28.97,NNW,338,0.0,1.6,65,0.00,,---,0.00,VWS V14.00,2013-02-20 13:18:00,
2013-02-20 08:24:00,34.9,24.3,28.97,ENE,68,1.1,1.6,65,0.00,,---,0.00,VWS V14.00,2013-02-20 13:24:00,
2013-02-20 08:30:00,36.0,25.0,28.97,East,90,1.6,1.6,64,0.00,,---,0.00,VWS V14.00,2013-02-20 13:30:00,
2013-02-20 08:36:00,36.7,25.7,28.97,South,180,0.0,2.0,64,0.00,,---,0.00,VWS V14.00,2013-02-20 13:36:00,
2013-02-20 08:42:00,37.9,25.7,28.97,East,90,0.0,2.0,61,0.00,,---,0.00,VWS V14.00,2013-02-20 13:42:00,
2013-02-20 08:48:00,38.7,26.4,28.94,SSE,158,1.6,2.0,61,0.00,,---,0.00,VWS V14.00,2013-02-20 13:48:00,
2013-02-20 08:54:00,39.2,26.9,28.94,SE,135,2.2,2.2,61,0.00,,---,0.00,VWS V14.00,2013-02-20 13:54:00,
2013-02-20 09:00:00,40.3,27.9,28.94,WSW,248,0.9,2.5,61,0.00,,---,0.00,VWS V14.00,2013-02-20 14:00:00,
2013-02-20 09:06:00,41.4,28.9,28.94,SE,135,1.6,2.9,61,0.00,,---,0.00,VWS V14.00,2013-02-20 14:06:00,
2013-02-20 09:12:00,42.3,28.5,28.94,ESE,112,3.6,3.6,58,0.00,,---,0.00,VWS V14.00,2013-02-20 14:12:00,
2013-02-20 09:18:00,43.5,29.7,28.94,South,180,1.1,3.8,58,0.00,,---,0.00,VWS V14.00,2013-02-20 14:18:00,
2013-02-20 09:24:00,44.6,30.3,28.94,South,180,1.6,3.8,57,0.00,,---,0.00,VWS V14.00,2013-02-20 14:24:00,
2013-02-20 09:30:00,45.3,31.0,28.94,ESE,112,1.1,3.8,57,0.00,,---,0.00,VWS V14.00,2013-02-20 14:30:00,
2013-02-20 09:36:00,46.2,31.8,28.94,SSE,158,2.5,3.8,57,0.00,,---,0.00,VWS V14.00,2013-02-20 14:36:00,
2013-02-20 09:42:00,46.6,32.2,28.94,NE,45,1.1,3.8,57,0.00,,---,0.00,VWS V14.00,2013-02-20 14:42:00,
2013-02-20 09:48:00,47.5,33.0,28.94,ESE,112,2.5,3.8,57,0.00,,---,0.00,VWS V14.00,2013-02-20 14:48:00,
2013-02-20 09:54:00,48.0,33.5,28.94,ESE,112,3.1,3.8,57,0.00,,---,0.00,VWS V14.00,2013-02-20 14:54:00,
2013-02-20 10:00:00,48.6,33.6,28.97,SE,135,2.5,3.8,56,0.00,,---,0.00,VWS V14.00,2013-02-20 15:00:00,
2013-02-20 10:06:00,48.6,33.6,28.97,SE,135,1.1,2.9,56,0.00,,---,0.00,VWS V14.00,2013-02-20 15:06:00,
2013-02-20 10:12:00,48.7,33.8,28.97,North,0,1.6,3.1,56,0.00,,---,0.00,VWS V14.00,2013-02-20 15:12:00,
2013-02-20 10:18:00,49.8,34.8,28.97,WSW,248,1.1,3.1,56,0.00,,---,0.00,VWS V14.00,2013-02-20 15:18:00,
2013-02-20 10:24:00,50.2,35.1,28.97,ESE,112,1.3,3.1,56,0.00,,---,0.00,VWS V14.00,2013-02-20 15:24:00,
2013-02-20 10:30:00,50.5,34.5,28.94,SE,135,2.0,3.6,54,0.00,,---,0.00,VWS V14.00,2013-02-20 15:30:00,
2013-02-20 10:36:00,50.7,34.7,28.94,SSE,158,3.4,3.6,54,0.00,,---,0.00,VWS V14.00,2013-02-20 15:36:00,
2013-02-20 10:42:00,50.9,34.9,28.94,SSE,158,1.1,4.3,54,0.00,,---,0.00,VWS V14.00,2013-02-20 15:42:00,
2013-02-20 10:48:00,51.4,35.4,28.94,West,270,2.9,4.3,54,0.00,,---,0.00,VWS V14.00,2013-02-20 15:48:00,
2013-02-20 10:54:00,51.1,35.0,28.94,SSE,158,2.5,4.3,54,0.00,,---,0.00,VWS V14.00,2013-02-20 15:54:00,
2013-02-20 11:00:00,51.6,35.5,28.94,West,270,2.0,4.3,54,0.00,,---,0.00,VWS V14.00,2013-02-20 16:00:00,
2013-02-20 11:06:00,51.4,35.4,28.94,SSE,158,2.7,3.8,54,0.00,,---,0.00,VWS V14.00,2013-02-20 16:06:00,
2013-02-20 11:12:00,51.4,35.4,28.94,SE,135,2.7,3.8,54,0.00,,---,0.00,VWS V14.00,2013-02-20 16:12:00,
2013-02-20 11:18:00,51.6,35.5,28.94,WNW,292,1.6,3.8,54,0.00,,---,0.00,VWS V14.00,2013-02-20 16:18:00,
2013-02-20 11:24:00,51.6,35.5,28.94,ESE,112,4.0,4.0,54,0.00,,---,0.00,VWS V14.00,2013-02-20 16:24:00,
2013-02-20 11:30:00,51.4,35.4,28.94,East,90,0.0,4.0,54,0.00,,---,0.00,VWS V14.00,2013-02-20 16:30:00,
2013-02-20 11:36:00,51.6,35.5,28.94,SE,135,2.2,4.0,54,0.00,,---,0.00,VWS V14.00,2013-02-20 16:36:00,
2013-02-20 11:42:00,51.6,35.5,28.94,WNW,292,0.9,4.3,54,0.00,,---,0.00,VWS V14.00,2013-02-20 16:42:00,
2013-02-20 11:48:00,51.6,35.5,28.94,East,90,2.2,4.3,54,0.00,,---,0.00,VWS V14.00,2013-02-20 16:48:00,
2013-02-20 11:54:00,51.8,35.2,28.94,East,90,2.2,4.3,53,0.00,,---,0.00,VWS V14.00,2013-02-20 16:54:00,
2013-02-20 12:00:00,51.8,35.2,28.94,WNW,292,1.3,4.3,53,0.00,,---,0.00,VWS V14.00,2013-02-20 17:00:00,
2013-02-20 12:06:00,52.3,35.7,28.94,SE,135,4.9,4.9,53,0.00,,---,0.00,VWS V14.00,2013-02-20 17:06:00,
2013-02-20 12:12:00,52.3,35.7,28.94,SE,135,2.2,4.9,53,0.00,,---,0.00,VWS V14.00,2013-02-20 17:12:00,
2013-02-20 12:18:00,52.7,36.1,28.91,SSE,158,3.8,4.9,53,0.00,,---,0.00,VWS V14.00,2013-02-20 17:18:00,
2013-02-20 12:24:00,52.7,36.1,28.91,ENE,68,2.5,4.9,53,0.00,,---,0.00,VWS V14.00,2013-02-20 17:24:00,
2013-02-20 12:30:00,53.1,36.4,28.91,East,90,4.0,4.9,53,0.00,,---,0.00,VWS V14.00,2013-02-20 17:30:00,
2013-02-20 12:36:00,53.1,36.4,28.91,NNE,22,1.6,4.9,53,0.00,,---,0.00,VWS V14.00,2013-02-20 17:36:00,
2013-02-20 12:42:00,53.4,36.7,28.91,NNE,22,1.6,4.9,53,0.00,,---,0.00,VWS V14.00,2013-02-20 17:42:00,
2013-02-20 12:48:00,53.8,37.1,28.91,NNE,22,1.6,4.9,53,0.00,,---,0.00,VWS V14.00,2013-02-20 17:48:00,
2013-02-20 12:54:00,54.0,37.2,28.91,ESE,112,3.1,4.9,53,0.00,,---,0.00,VWS V14.00,2013-02-20 17:54:00,
2013-02-20 13:00:00,54.3,37.6,28.91,ESE,112,3.1,4.9,53,0.00,,---,0.00,VWS V14.00,2013-02-20 18:00:00,
2013-02-20 13:06:00,54.9,38.1,28.91,East,90,3.4,3.4,53,0.00,,---,0.00,VWS V14.00,2013-02-20 18:06:00,
2013-02-20 13:12:00,55.0,38.2,28.91,SSE,158,2.9,3.4,53,0.00,,---,0.00,VWS V14.00,2013-02-20 18:12:00,
2013-02-20 13:18:00,55.6,38.2,28.88,SSE,158,2.9,3.4,52,0.00,,---,0.00,VWS V14.00,2013-02-20 18:18:00,
2013-02-20 13:25:00,56.1,38.8,28.88,SW,225,2.0,5.4,52,0.00,,---,0.00,VWS V14.00,2013-02-20 18:25:00,
2013-02-20 13:31:00,56.3,38.9,28.88,NE,45,2.2,5.4,52,0.00,,---,0.00,VWS V14.00,2013-02-20 18:31:00,
2013-02-20 13:37:00,56.7,39.2,28.88,NE,45,2.2,5.4,52,0.00,,---,0.00,VWS V14.00,2013-02-20 18:37:00,
2013-02-20 13:43:00,56.8,39.4,28.88,NE,45,2.2,5.4,52,0.00,,---,0.00,VWS V14.00,2013-02-20 18:43:00,
2013-02-20 13:49:00,57.0,39.6,28.88,SE,135,4.0,5.4,52,0.00,,---,0.00,VWS V14.00,2013-02-20 18:49:00,
2013-02-20 13:55:00,57.2,39.8,28.88,WNW,292,2.9,5.4,52,0.00,,---,0.00,VWS V14.00,2013-02-20 18:55:00,
2013-02-20 14:00:00,57.4,39.9,28.85,SE,135,1.6,5.6,52,0.00,,---,0.00,VWS V14.00,2013-02-20 19:00:00,
2013-02-20 14:07:00,57.7,40.2,28.85,West,270,2.0,5.6,52,0.00,,---,0.00,VWS V14.00,2013-02-20 19:07:00,
2013-02-20 14:13:00,57.7,40.2,28.85,West,270,2.2,5.6,52,0.00,,---,0.00,VWS V14.00,2013-02-20 19:13:00,
2013-02-20 14:19:00,58.1,40.6,28.85,WSW,248,0.0,5.6,52,0.00,,---,0.00,VWS V14.00,2013-02-20 19:19:00,
2013-02-20 14:25:00,58.3,40.8,28.85,WSW,248,2.2,5.6,52,0.00,,---,0.00,VWS V14.00,2013-02-20 19:25:00,
2013-02-20 14:31:00,58.5,40.9,28.85,West,270,1.6,5.6,52,0.00,,---,0.00,VWS V14.00,2013-02-20 19:31:00,
2013-02-20 14:37:00,58.5,40.9,28.85,NW,315,1.6,5.6,52,0.00,,---,0.00,VWS V14.00,2013-02-20 19:37:00,
2013-02-20 14:43:00,58.6,41.1,28.85,West,270,2.0,5.6,52,0.00,,---,0.00,VWS V14.00,2013-02-20 19:43:00,
2013-02-20 14:49:00,58.8,41.2,28.85,SSE,158,3.4,5.6,52,0.00,,---,0.00,VWS V14.00,2013-02-20 19:49:00,
2013-02-20 14:55:00,59.0,41.4,28.85,SSE,158,3.4,5.6,52,0.00,,---,0.00,VWS V14.00,2013-02-20 19:55:00,
2013-02-20 15:01:00,59.4,41.8,28.85,WSW,248,1.3,2.9,52,0.00,,---,0.00,VWS V14.00,2013-02-20 20:01:00,
2013-02-20 15:07:00,59.5,41.9,28.85,WSW,248,1.3,2.9,52,0.00,,---,0.00,VWS V14.00,2013-02-20 20:07:00,
2013-02-20 15:13:00,59.7,42.1,28.85,WSW,248,1.3,2.9,52,0.00,,---,0.00,VWS V14.00,2013-02-20 20:13:00,
2013-02-20 15:19:00,59.9,42.2,28.85,WNW,292,1.6,2.9,52,0.00,,---,0.00,VWS V14.00,2013-02-20 20:19:00,
2013-02-20 15:25:00,60.1,42.4,28.85,WNW,292,3.1,3.1,52,0.00,,---,0.00,VWS V14.00,2013-02-20 20:25:00,
2013-02-20 15:31:00,60.1,42.4,28.85,West,270,2.0,3.1,52,0.00,,---,0.00,VWS V14.00,2013-02-20 20:31:00,
2013-02-20 15:37:00,60.1,42.4,28.85,ESE,112,2.7,3.1,52,0.00,,---,0.00,VWS V14.00,2013-02-20 20:37:00,
2013-02-20 15:43:00,60.1,42.4,28.85,SW,225,2.0,3.1,52,0.00,,---,0.00,VWS V14.00,2013-02-20 20:43:00,
2013-02-20 15:49:00,60.1,42.4,28.85,WSW,248,0.0,3.1,52,0.00,,---,0.00,VWS V14.00,2013-02-20 20:49:00,
2013-02-20 15:55:00,60.1,42.4,28.85,South,180,1.6,3.1,52,0.00,,---,0.00,VWS V14.00,2013-02-20 20:55:00,
2013-02-20 16:01:00,60.1,42.4,28.85,West,270,2.0,2.0,52,0.00,,---,0.00,VWS V14.00,2013-02-20 21:01:00,
2013-02-20 16:07:00,60.1,42.4,28.85,South,180,0.0,2.2,52,0.00,,---,0.00,VWS V14.00,2013-02-20 21:07:00,
2013-02-20 16:13:00,59.9,42.2,28.85,West,270,2.2,2.2,52,0.00,,---,0.00,VWS V14.00,2013-02-20 21:13:00,
2013-02-20 16:19:00,59.9,42.2,28.85,West,270,0.9,2.2,52,0.00,,---,0.00,VWS V14.00,2013-02-20 21:19:00,
2013-02-20 16:25:00,59.7,42.1,28.85,NW,315,0.0,2.7,52,0.00,,---,0.00,VWS V14.00,2013-02-20 21:25:00,
2013-02-20 16:31:00,59.7,42.1,28.85,West,270,0.0,2.7,52,0.00,,---,0.00,VWS V14.00,2013-02-20 21:31:00,
2013-02-20 16:37:00,59.5,41.9,28.85,West,270,0.0,2.7,52,0.00,,---,0.00,VWS V14.00,2013-02-20 21:37:00,
2013-02-20 16:43:00,59.5,41.9,28.88,NW,315,0.0,2.7,52,0.00,,---,0.00,VWS V14.00,2013-02-20 21:43:00,
2013-02-20 16:49:00,59.4,41.8,28.88,WNW,292,1.6,2.9,52,0.00,,---,0.00,VWS V14.00,2013-02-20 21:49:00,
2013-02-20 16:55:00,59.2,41.6,28.88,West,270,2.0,3.6,52,0.00,,---,0.00,VWS V14.00,2013-02-20 21:55:00,
2013-02-20 17:01:00,58.8,41.2,28.88,West,270,3.8,3.8,52,0.00,,---,0.00,VWS V14.00,2013-02-20 22:01:00,
2013-02-20 17:07:00,58.8,41.2,28.88,West,270,0.0,3.8,52,0.00,,---,0.00,VWS V14.00,2013-02-20 22:07:00,
2013-02-20 17:13:00,58.5,40.9,28.88,West,270,0.0,3.8,52,0.00,,---,0.00,VWS V14.00,2013-02-20 22:13:00,
2013-02-20 17:19:00,58.3,40.8,28.88,SE,135,0.0,3.8,52,0.00,,---,0.00,VWS V14.00,2013-02-20 22:19:00,
2013-02-20 17:25:00,58.1,40.6,28.88,East,90,2.0,3.8,52,0.00,,---,0.00,VWS V14.00,2013-02-20 22:25:00,
2013-02-20 17:31:00,57.9,40.4,28.88,WSW,248,0.0,3.8,52,0.00,,---,0.00,VWS V14.00,2013-02-20 22:31:00,
2013-02-20 17:37:00,57.7,40.2,28.88,WSW,248,0.0,3.8,52,0.00,,---,0.00,VWS V14.00,2013-02-20 22:37:00,
2013-02-20 17:43:00,57.6,40.1,28.88,WSW,248,0.0,3.8,52,0.00,,---,0.00,VWS V14.00,2013-02-20 22:43:00,
2013-02-20 17:49:00,57.2,39.8,28.88,WSW,248,0.0,3.8,52,0.00,,---,0.00,VWS V14.00,2013-02-20 22:49:00,
2013-02-20 17:55:00,57.0,39.6,28.88,West,270,1.6,3.8,52,0.00,,---,0.00,VWS V14.00,2013-02-20 22:55:00,
2013-02-20 18:01:00,56.8,39.4,28.91,West,270,1.6,1.6,52,0.00,,---,0.00,VWS V14.00,2013-02-20 23:01:00,
2013-02-20 18:07:00,56.5,39.1,28.91,West,270,1.6,1.6,52,0.00,,---,0.00,VWS V14.00,2013-02-20 23:07:00,
2013-02-20 18:13:00,56.3,38.9,28.91,West,270,1.6,1.6,52,0.00,,---,0.00,VWS V14.00,2013-02-20 23:13:00,
2013-02-20 18:19:00,56.1,38.8,28.91,West,270,1.6,1.6,52,0.00,,---,0.00,VWS V14.00,2013-02-20 23:19:00,
2013-02-20 18:25:00,55.6,38.2,28.91,West,270,1.6,1.6,52,0.00,,---,0.00,VWS V14.00,2013-02-20 23:25:00,
2013-02-20 18:31:00,55.0,38.2,28.91,West,270,1.6,1.6,53,0.00,,---,0.00,VWS V14.00,2013-02-20 23:31:00,
2013-02-20 18:37:00,54.7,37.9,28.91,West,270,1.6,1.6,53,0.00,,---,0.00,VWS V14.00,2013-02-20 23:37:00,
2013-02-20 18:44:00,54.5,37.7,28.91,West,270,1.6,1.6,53,0.00,,---,0.00,VWS V14.00,2013-02-20 23:44:00,
2013-02-20 18:50:00,54.1,37.4,28.91,West,270,1.6,1.6,53,0.00,,---,0.00,VWS V14.00,2013-02-20 23:50:00,
2013-02-20 18:56:00,53.8,37.1,28.91,West,270,1.6,1.6,53,0.00,,---,0.00,VWS V14.00,2013-02-20 23:56:00,
2013-02-20 19:02:00,53.4,36.7,28.91,West,270,1.6,1.6,53,0.00,,---,0.00,VWS V14.00,2013-02-21 00:02:00,
2013-02-20 19:08:00,53.1,36.4,28.91,WNW,292,0.0,1.6,53,0.00,,---,0.00,VWS V14.00,2013-02-21 00:08:00,
2013-02-20 19:14:00,52.7,36.1,28.91,WNW,292,0.0,1.6,53,0.00,,---,0.00,VWS V14.00,2013-02-21 00:14:00,
2013-02-20 19:20:00,52.2,35.6,28.91,WNW,292,0.0,1.6,53,0.00,,---,0.00,VWS V14.00,2013-02-21 00:20:00,
2013-02-20 19:26:00,52.2,35.6,28.91,WNW,292,0.0,1.6,53,0.00,,---,0.00,VWS V14.00,2013-02-21 00:26:00,
2013-02-20 19:32:00,51.8,35.2,28.91,WNW,292,0.0,1.6,53,0.00,,---,0.00,VWS V14.00,2013-02-21 00:32:00,
2013-02-20 19:38:00,51.4,35.4,28.91,WNW,292,0.0,1.6,54,0.00,,---,0.00,VWS V14.00,2013-02-21 00:38:00,
2013-02-20 19:44:00,51.1,35.0,28.91,WNW,292,0.0,1.6,54,0.00,,---,0.00,VWS V14.00,2013-02-21 00:44:00,
2013-02-20 19:50:00,50.5,34.5,28.91,WNW,292,0.0,1.6,54,0.00,,---,0.00,VWS V14.00,2013-02-21 00:50:00,
2013-02-20 19:56:00,50.2,34.2,28.91,WNW,292,0.0,1.6,54,0.00,,---,0.00,VWS V14.00,2013-02-21 00:56:00,
2013-02-20 20:02:00,49.6,33.7,28.88,NNE,22,0.0,0.0,54,0.00,,---,0.00,VWS V14.00,2013-02-21 01:02:00,
2013-02-20 20:08:00,49.1,33.2,28.88,NNE,22,0.0,0.0,54,0.00,,---,0.00,VWS V14.00,2013-02-21 01:08:00,
2013-02-20 20:14:00,48.6,32.7,28.88,NNE,22,0.0,0.0,54,0.00,,---,0.00,VWS V14.00,2013-02-21 01:14:00,
2013-02-20 20:20:00,48.0,32.2,28.88,NNE,22,0.0,0.0,54,0.00,,---,0.00,VWS V14.00,2013-02-21 01:20:00,
2013-02-20 20:26:00,47.3,31.5,28.88,NNE,22,0.0,0.0,54,0.00,,---,0.00,VWS V14.00,2013-02-21 01:26:00,
2013-02-20 20:32:00,46.8,31.0,28.88,NE,45,0.9,0.9,54,0.00,,---,0.00,VWS V14.00,2013-02-21 01:32:00,
2013-02-20 20:38:00,46.2,31.0,28.88,NNW,338,0.0,0.9,55,0.00,,---,0.00,VWS V14.00,2013-02-21 01:38:00,
2013-02-20 20:44:00,45.9,30.6,28.91,NE,45,0.0,0.9,55,0.00,,---,0.00,VWS V14.00,2013-02-21 01:44:00,
2013-02-20 20:50:00,45.1,30.0,28.91,NNE,22,1.1,1.1,55,0.00,,---,0.00,VWS V14.00,2013-02-21 01:50:00,
2013-02-20 20:56:00,44.2,29.1,28.91,NNE,22,1.1,1.1,55,0.00,,---,0.00,VWS V14.00,2013-02-21 01:56:00,
2013-02-20 21:02:00,43.9,28.8,28.88,NNE,22,1.1,1.1,55,0.00,,---,0.00,VWS V14.00,2013-02-21 02:02:00,
2013-02-20 21:08:00,43.3,28.3,28.88,NNE,22,1.1,1.1,55,0.00,,---,0.00,VWS V14.00,2013-02-21 02:08:00,
2013-02-20 21:14:00,42.8,27.8,28.88,NNE,22,0.0,1.1,55,0.00,,---,0.00,VWS V14.00,2013-02-21 02:14:00,
2013-02-20 21:20:00,42.3,27.7,28.88,NNE,22,0.0,1.1,56,0.00,,---,0.00,VWS V14.00,2013-02-21 02:20:00,
2013-02-20 21:26:00,42.1,27.5,28.88,NNE,22,0.0,1.1,56,0.00,,---,0.00,VWS V14.00,2013-02-21 02:26:00,
2013-02-20 21:32:00,41.5,27.0,28.91,NNE,22,0.0,1.1,56,0.00,,---,0.00,VWS V14.00,2013-02-21 02:32:00,
2013-02-20 21:38:00,41.0,26.5,28.91,NNE,22,0.0,1.1,56,0.00,,---,0.00,VWS V14.00,2013-02-21 02:38:00,
2013-02-20 21:44:00,40.6,26.2,28.91,NNE,22,0.0,1.1,56,0.00,,---,0.00,VWS V14.00,2013-02-21 02:44:00,
2013-02-20 21:50:00,40.6,26.2,28.91,NNE,22,0.0,1.1,56,0.00,,---,0.00,VWS V14.00,2013-02-21 02:50:00,
2013-02-20 21:56:00,40.3,25.9,28.91,NNE,22,0.0,1.1,56,0.00,,---,0.00,VWS V14.00,2013-02-21 02:56:00,
2013-02-20 22:02:00,39.9,25.5,28.91,NNE,22,0.0,0.0,56,0.00,,---,0.00,VWS V14.00,2013-02-21 03:02:00,
2013-02-20 22:08:00,39.7,25.3,28.91,NNE,22,0.0,0.0,56,0.00,,---,0.00,VWS V14.00,2013-02-21 03:08:00,
2013-02-20 22:14:00,39.6,26.0,28.91,NNE,22,0.0,0.0,58,0.00,,---,0.00,VWS V14.00,2013-02-21 03:14:00,
2013-02-20 22:20:00,39.4,25.9,28.91,NNE,22,0.0,0.0,58,0.00,,---,0.00,VWS V14.00,2013-02-21 03:20:00,
2013-02-20 22:26:00,39.2,25.7,28.91,NNE,22,0.0,0.0,58,0.00,,---,0.00,VWS V14.00,2013-02-21 03:26:00,
2013-02-20 22:32:00,38.8,25.8,28.91,NNE,22,0.0,0.0,59,0.00,,---,0.00,VWS V14.00,2013-02-21 03:32:00,
2013-02-20 22:38:00,38.7,25.6,28.91,NNE,22,0.0,0.0,59,0.00,,---,0.00,VWS V14.00,2013-02-21 03:38:00,
2013-02-20 22:44:00,38.5,25.4,28.91,NNE,22,0.0,0.0,59,0.00,,---,0.00,VWS V14.00,2013-02-21 03:44:00,
2013-02-20 22:51:00,38.3,25.2,28.91,NNE,22,0.0,0.0,59,0.00,,---,0.00,VWS V14.00,2013-02-21 03:51:00,
2013-02-20 22:57:00,38.1,25.1,28.91,NNE,22,0.0,0.0,59,0.00,,---,0.00,VWS V14.00,2013-02-21 03:57:00,
2013-02-20 23:03:00,37.8,24.7,28.91,NNE,22,0.0,0.0,59,0.00,,---,0.00,VWS V14.00,2013-02-21 04:03:00,
2013-02-20 23:09:00,37.8,24.7,28.91,NNE,22,0.0,0.0,59,0.00,,---,0.00,VWS V14.00,2013-02-21 04:09:00,
2013-02-20 23:15:00,37.4,24.4,28.91,NNE,22,0.0,0.0,59,0.00,,---,0.00,VWS V14.00,2013-02-21 04:15:00,
2013-02-20 23:21:00,37.2,24.2,28.91,NNE,22,0.0,0.0,59,0.00,,---,0.00,VWS V14.00,2013-02-21 04:21:00,
2013-02-20 23:27:00,36.9,23.9,28.91,NNE,22,0.0,0.0,59,0.00,,---,0.00,VWS V14.00,2013-02-21 04:27:00,
2013-02-20 23:33:00,36.9,23.9,28.91,NNE,22,0.0,0.0,59,0.00,,---,0.00,VWS V14.00,2013-02-21 04:33:00,
2013-02-20 23:39:00,36.9,23.9,28.91,NNE,22,0.0,0.0,59,0.00,,---,0.00,VWS V14.00,2013-02-21 04:39:00,
2013-02-20 23:45:00,36.7,24.9,28.91,NNE,22,0.0,0.0,62,0.00,,---,0.00,VWS V14.00,2013-02-21 04:45:00,
2013-02-20 23:51:00,36.3,24.6,28.91,NNE,22,0.0,0.0,62,0.00,,---,0.00,VWS V14.00,2013-02-21 04:51:00,
2013-02-20 23:57:00,36.1,24.4,28.91,NNE,22,0.0,0.0,62,0.00,,---,0.00,VWS V14.00,2013-02-21 04:57:00,